Time,TemperatureF,DewpointF,PressureIn,WindDirection,WindDirectionDegrees,WindSpeedMPH,WindSpeedGustMPH,Humidity,HourlyPrecipIn,Conditions,Clouds,dailyrainin,SoftwareType,DateUTC
2013-03-14 00:01:00,48.0,46.0,30.04,SSW,204,9.0,-999.0,92,-99.99,,,-99.99,,2013-03-14 07:01:00,
2013-03-14 00:11:00,48.0,46.0,30.04,SSW,204,9.0,-999.0,92,-99.99,,,-99.99,,2013-03-14 07:11:00,
2013-03-14 00:22:00,48.0,46.0,30.03,SW,224,9.0,-999.0,93,-99.99,,,-99.99,,2013-03-14 07:22:00,
2013-03-14 00:32:00,47.0,45.0,30.03,SW,227,9.0,-999.0,93,-99.99,,,-99.99,,2013-03-14 07:32:00,
2013-03-14 00:42:00,47.0,45.0,30.03,SW,227,9.0,-999.0,93,-99.99,,,-99.99,,2013-03-14 07:42:00,
2013-03-14 00:52:00,47.0,45.0,30.03,SW,227,11.0,-999.0,93,-99.99,,,-99.99,,2013-03-14 07:52:00,
2013-03-14 01:01:00,47.0,45.0,30.03,WSW,247,9.0,-999.0,94,-99.99,,,-99.99,,2013-03-14 08:01:00,
2013-03-14 01:21:00,47.0,46.0,30.03,SW,235,10.0,-999.0,95,-99.99,,,-99.99,,2013-03-14 08:21:00,
2013-03-14 01:31:00,47.0,46.0,30.03,SW,235,10.0,-999.0,95,-99.99,,,-99.99,,2013-03-14 08:31:00,
2013-03-14 01:41:00,47.0,46.0,30.03,SW,235,10.0,-999.0,95,-99.99,,,-99.99,,2013-03-14 08:41:00,
2013-03-14 01:52:00,46.0,45.0,30.02,SW,232,11.0,-999.0,96,-99.99,,,-99.99,,2013-03-14 08:52:00,
2013-03-14 02:01:00,46.0,45.0,30.01,SW,236,10.0,-999.0,96,-99.99,,,-99.99,,2013-03-14 09:01:00,
2013-03-14 02:11:00,46.0,45.0,30.01,SW,236,10.0,-999.0,96,-99.99,,,-99.99,,2013-03-14 09:11:00,
2013-03-14 02:22:00,46.0,45.0,30.01,SW,225,10.0,-999.0,97,-99.99,,,-99.99,,2013-03-14 09:22:00,
2013-03-14 02:31:00,46.0,45.0,30.01,WSW,246,10.0,-999.0,97,-99.99,,,-99.99,,2013-03-14 09:31:00,
2013-03-14 02:41:00,46.0,45.0,30.01,WSW,246,10.0,-999.0,97,-99.99,,,-99.99,,2013-03-14 09:41:00,
2013-03-14 02:52:00,46.0,45.0,30.01,SW,232,10.0,-999.0,97,-99.99,,,-99.99,,2013-03-14 09:52:00,
2013-03-14 03:01:00,46.0,45.0,30.01,SW,224,9.0,-999.0,97,-99.99,,,-99.99,,2013-03-14 10:01:00,
2013-03-14 03:11:00,46.0,45.0,30.01,SW,224,9.0,-999.0,97,-99.99,,,-99.99,,2013-03-14 10:11:00,
2013-03-14 03:22:00,46.0,45.0,30.01,WSW,240,9.0,-999.0,96,-99.99,,,-99.99,,2013-03-14 10:22:00,
2013-03-14 03:31:00,46.0,45.0,30.00,WSW,240,10.0,-999.0,96,-99.99,,,-99.99,,2013-03-14 10:31:00,
2013-03-14 03:42:00,46.0,45.0,30.00,WSW,240,10.0,-999.0,96,-99.99,,,-99.99,,2013-03-14 10:42:00,
2013-03-14 03:52:00,46.0,45.0,30.00,WSW,239,9.0,-999.0,96,-99.99,,,-99.99,,2013-03-14 10:52:00,
2013-03-14 04:01:00,46.0,45.0,29.99,WSW,253,10.0,-999.0,96,-99.99,,,-99.99,,2013-03-14 11:01:00,
2013-03-14 04:12:00,46.0,45.0,29.99,WSW,253,10.0,-999.0,96,-99.99,,,-99.99,,2013-03-14 11:12:00,
2013-03-14 04:22:00,46.0,45.0,29.99,SW,233,8.0,-999.0,96,-99.99,,,-99.99,,2013-03-14 11:22:00,
2013-03-14 04:31:00,46.0,45.0,30.00,SW,218,10.0,-999.0,96,-99.99,,,-99.99,,2013-03-14 11:31:00,
2013-03-14 04:41:00,46.0,45.0,30.00,SW,218,10.0,-999.0,96,-99.99,,,-99.99,,2013-03-14 11:41:00,
2013-03-14 04:52:00,47.0,46.0,29.98,SW,234,8.0,-999.0,95,-99.99,,,-99.99,,2013-03-14 11:52:00,
2013-03-14 05:01:00,47.0,46.0,29.98,SW,227,10.0,-999.0,95,-99.99,,,-99.99,,2013-03-14 12:01:00,
2013-03-14 05:11:00,47.0,46.0,29.98,SW,227,10.0,-999.0,95,-99.99,,,-99.99,,2013-03-14 12:11:00,
2013-03-14 05:21:00,47.0,46.0,29.98,WSW,252,10.0,-999.0,95,-99.99,,,-99.99,,2013-03-14 12:21:00,
2013-03-14 05:32:00,47.0,46.0,29.98,WSW,252,10.0,-999.0,95,-99.99,,,-99.99,,2013-03-14 12:32:00,
2013-03-14 05:42:00,47.0,46.0,29.98,WSW,252,10.0,-999.0,95,-99.99,,,-99.99,,2013-03-14 12:42:00,
2013-03-14 05:52:00,47.0,46.0,29.99,SW,232,9.0,-999.0,95,-99.99,,,-99.99,,2013-03-14 12:52:00,
2013-03-14 06:01:00,47.0,46.0,29.98,SW,228,8.0,-999.0,95,-99.99,,,-99.99,,2013-03-14 13:01:00,
2013-03-14 06:12:00,47.0,46.0,29.98,SW,228,8.0,-999.0,95,-99.99,,,-99.99,,2013-03-14 13:12:00,
2013-03-14 06:21:00,46.0,45.0,29.98,SW,223,6.0,-999.0,95,-99.99,,,-99.99,,2013-03-14 13:21:00,
2013-03-14 06:32:00,46.0,45.0,29.98,WSW,239,9.0,-999.0,95,-99.99,,,-99.99,,2013-03-14 13:32:00,
2013-03-14 06:42:00,46.0,45.0,29.98,WSW,239,9.0,-999.0,95,-99.99,,,-99.99,,2013-03-14 13:42:00,
2013-03-14 06:52:00,46.0,45.0,29.98,SW,229,9.0,-999.0,95,-99.99,,,-99.99,,2013-03-14 13:52:00,
2013-03-14 07:02:00,46.0,45.0,29.99,SW,225,10.0,-999.0,95,-99.99,,,-99.99,,2013-03-14 14:02:00,
2013-03-14 07:11:00,46.0,45.0,29.99,SW,225,10.0,-999.0,95,-99.99,,,-99.99,,2013-03-14 14:11:00,
2013-03-14 07:22:00,46.0,45.0,29.98,WSW,238,9.0,-999.0,95,-99.99,,,-99.99,,2013-03-14 14:22:00,
2013-03-14 07:31:00,46.0,45.0,29.98,SW,232,7.0,-999.0,95,-99.99,,,-99.99,,2013-03-14 14:31:00,
2013-03-14 07:42:00,46.0,45.0,29.98,SW,232,7.0,-999.0,95,-99.99,,,-99.99,,2013-03-14 14:42:00,
2013-03-14 07:52:00,46.0,44.0,29.98,SW,225,5.0,-999.0,94,-99.99,,,-99.99,,2013-03-14 14:52:00,
2013-03-14 08:01:00,46.0,44.0,29.98,SW,221,6.0,-999.0,94,-99.99,,,-99.99,,2013-03-14 15:01:00,
2013-03-14 08:11:00,46.0,44.0,29.98,SW,221,6.0,-999.0,94,-99.99,,,-99.99,,2013-03-14 15:11:00,
2013-03-14 08:22:00,47.0,45.0,29.99,SW,234,9.0,-999.0,93,-99.99,,,-99.99,,2013-03-14 15:22:00,
2013-03-14 08:32:00,47.0,45.0,29.99,WSW,241,10.0,-999.0,93,-99.99,,,-99.99,,2013-03-14 15:32:00,
2013-03-14 08:42:00,47.0,45.0,29.99,WSW,241,10.0,-999.0,93,-99.99,,,-99.99,,2013-03-14 15:42:00,
2013-03-14 08:52:00,47.0,45.0,30.01,SSW,208,8.0,-999.0,94,-99.99,,,-99.99,,2013-03-14 15:52:00,
2013-03-14 09:02:00,47.0,45.0,30.00,WSW,249,7.0,-999.0,94,-99.99,,,-99.99,,2013-03-14 16:02:00,
2013-03-14 09:12:00,47.0,45.0,30.00,WSW,249,7.0,-999.0,94,-99.99,,,-99.99,,2013-03-14 16:12:00,
2013-03-14 09:22:00,47.0,45.0,30.00,WSW,249,7.0,-999.0,94,-99.99,,,-99.99,,2013-03-14 16:22:00,
2013-03-14 09:32:00,47.0,45.0,30.01,WSW,258,9.0,-999.0,93,-99.99,,,-99.99,,2013-03-14 16:32:00,
2013-03-14 09:42:00,47.0,45.0,30.01,WSW,258,9.0,-999.0,93,-99.99,,,-99.99,,2013-03-14 16:42:00,
2013-03-14 09:52:00,48.0,46.0,30.01,WSW,242,8.0,-999.0,92,-99.99,,,-99.99,,2013-03-14 16:52:00,
2013-03-14 10:01:00,49.0,46.0,30.01,SSW,209,7.0,-999.0,90,-99.99,,,-99.99,,2013-03-14 17:01:00,
2013-03-14 10:12:00,49.0,46.0,30.01,SSW,209,7.0,-999.0,90,-99.99,,,-99.99,,2013-03-14 17:12:00,
2013-03-14 10:22:00,49.0,46.0,30.01,SSW,208,8.0,-999.0,90,-99.99,,,-99.99,,2013-03-14 17:22:00,
2013-03-14 10:31:00,49.0,46.0,30.02,SW,216,7.0,-999.0,89,-99.99,,,-99.99,,2013-03-14 17:31:00,
2013-03-14 10:41:00,49.0,46.0,30.02,SW,216,7.0,-999.0,89,-99.99,,,-99.99,,2013-03-14 17:41:00,
2013-03-14 10:52:00,49.0,46.0,30.01,SW,230,12.0,-999.0,89,-99.99,,,-99.99,,2013-03-14 17:52:00,
2013-03-14 11:02:00,49.0,46.0,30.01,SSW,212,12.0,-999.0,88,-99.99,,,-99.99,,2013-03-14 18:02:00,
2013-03-14 11:12:00,49.0,46.0,30.01,SSW,212,12.0,-999.0,88,-99.99,,,-99.99,,2013-03-14 18:12:00,
2013-03-14 11:22:00,49.0,46.0,30.01,SW,236,11.0,-999.0,88,-99.99,,,-99.99,,2013-03-14 18:22:00,
2013-03-14 11:32:00,49.0,46.0,30.01,SW,232,10.0,-999.0,88,-99.99,,,-99.99,,2013-03-14 18:32:00,
2013-03-14 11:42:00,49.0,46.0,30.01,SW,232,10.0,-999.0,88,-99.99,,,-99.99,,2013-03-14 18:42:00,
2013-03-14 11:52:00,49.0,46.0,30.01,SW,225,10.0,-999.0,88,-99.99,,,-99.99,,2013-03-14 18:52:00,
2013-03-14 12:01:00,49.0,45.0,30.02,SW,232,11.0,-999.0,87,-99.99,,,-99.99,,2013-03-14 19:01:00,
2013-03-14 12:12:00,49.0,45.0,30.02,SW,232,11.0,-999.0,87,-99.99,,,-99.99,,2013-03-14 19:12:00,
2013-03-14 12:21:00,49.0,45.0,30.02,SW,232,11.0,-999.0,87,-99.99,,,-99.99,,2013-03-14 19:21:00,
2013-03-14 12:32:00,49.0,45.0,30.01,SW,232,11.0,-999.0,87,-99.99,,,-99.99,,2013-03-14 19:32:00,
2013-03-14 12:42:00,49.0,45.0,30.01,SW,232,11.0,-999.0,87,-99.99,,,-99.99,,2013-03-14 19:42:00,
2013-03-14 12:52:00,49.0,45.0,30.01,WSW,238,10.0,-999.0,87,-99.99,,,-99.99,,2013-03-14 19:52:00,
2013-03-14 13:02:00,49.0,46.0,30.02,WSW,242,11.0,-999.0,88,-99.99,,,-99.99,,2013-03-14 20:02:00,
2013-03-14 13:11:00,49.0,46.0,30.02,WSW,242,11.0,-999.0,88,-99.99,,,-99.99,,2013-03-14 20:11:00,
2013-03-14 13:22:00,49.0,46.0,30.01,WSW,249,9.0,-999.0,89,-99.99,,,-99.99,,2013-03-14 20:22:00,
2013-03-14 13:31:00,49.0,46.0,30.01,SW,227,10.0,-999.0,91,-99.99,,,-99.99,,2013-03-14 20:31:00,
2013-03-14 13:42:00,49.0,46.0,30.01,SW,227,10.0,-999.0,91,-99.99,,,-99.99,,2013-03-14 20:42:00,
2013-03-14 13:51:00,48.0,46.0,30.01,SW,225,7.0,-999.0,92,-99.99,,,-99.99,,2013-03-14 20:51:00,
2013-03-14 14:02:00,49.0,46.0,30.00,WSW,238,9.0,-999.0,91,-99.99,,,-99.99,,2013-03-14 21:02:00,
2013-03-14 14:12:00,49.0,46.0,30.00,WSW,238,9.0,-999.0,91,-99.99,,,-99.99,,2013-03-14 21:12:00,
2013-03-14 14:21:00,49.0,46.0,30.01,SW,225,8.0,-999.0,89,-99.99,,,-99.99,,2013-03-14 21:21:00,
2013-03-14 14:32:00,50.0,46.0,30.00,WSW,240,12.0,-999.0,87,-99.99,,,-99.99,,2013-03-14 21:32:00,
2013-03-14 14:43:00,50.0,46.0,30.00,WSW,240,12.0,-999.0,87,-99.99,,,-99.99,,2013-03-14 21:43:00,
2013-03-14 14:52:00,51.0,47.0,29.99,WSW,237,14.0,-999.0,85,-99.99,,,-99.99,,2013-03-14 21:52:00,
2013-03-14 15:03:00,51.0,45.0,29.99,WSW,238,16.0,-999.0,80,-99.99,,,-99.99,,2013-03-14 22:03:00,
2013-03-14 15:12:00,51.0,45.0,29.99,WSW,238,16.0,-999.0,80,-99.99,,,-99.99,,2013-03-14 22:12:00,
2013-03-14 15:23:00,52.0,44.0,29.99,WSW,252,15.0,-999.0,75,-99.99,,,-99.99,,2013-03-14 22:23:00,
2013-03-14 15:32:00,53.0,45.0,29.99,SW,223,16.0,-999.0,74,-99.99,,,-99.99,,2013-03-14 22:32:00,
2013-03-14 15:42:00,53.0,45.0,29.99,SW,223,16.0,-999.0,74,-99.99,,,-99.99,,2013-03-14 22:42:00,
2013-03-14 15:52:00,52.0,45.0,29.99,WSW,249,16.0,-999.0,76,-99.99,,,-99.99,,2013-03-14 22:52:00,
2013-03-14 16:02:00,52.0,45.0,29.99,West,269,14.0,-999.0,76,-99.99,,,-99.99,,2013-03-14 23:02:00,
2013-03-14 16:12:00,52.0,45.0,29.99,West,269,14.0,-999.0,76,-99.99,,,-99.99,,2013-03-14 23:12:00,
2013-03-14 16:21:00,52.0,46.0,30.00,SW,221,13.0,-999.0,79,-99.99,,,-99.99,,2013-03-14 23:21:00,
2013-03-14 16:32:00,52.0,45.0,30.01,SW,216,15.0,-999.0,78,-99.99,,,-99.99,,2013-03-14 23:32:00,
2013-03-14 16:42:00,52.0,45.0,30.01,SW,216,15.0,-999.0,78,-99.99,,,-99.99,,2013-03-14 23:42:00,
2013-03-14 16:52:00,51.0,45.0,30.01,SW,236,14.0,-999.0,79,-99.99,,,-99.99,,2013-03-14 23:52:00,
2013-03-14 17:02:00,51.0,45.0,30.01,SW,231,11.0,-999.0,80,-99.99,,,-99.99,,2013-03-15 00:02:00,
2013-03-14 17:12:00,51.0,45.0,30.00,WSW,258,11.0,-999.0,80,-99.99,,,-99.99,,2013-03-15 00:12:00,
2013-03-14 17:22:00,51.0,45.0,30.00,WSW,258,11.0,-999.0,80,-99.99,,,-99.99,,2013-03-15 00:22:00,
2013-03-14 17:32:00,50.0,45.0,30.02,West,268,10.0,-999.0,82,-99.99,,,-99.99,,2013-03-15 00:32:00,
2013-03-14 17:42:00,50.0,45.0,30.02,West,268,10.0,-999.0,82,-99.99,,,-99.99,,2013-03-15 00:42:00,
2013-03-14 17:52:00,50.0,45.0,30.02,WSW,250,8.0,-999.0,83,-99.99,,,-99.99,,2013-03-15 00:52:00,
2013-03-14 18:02:00,50.0,46.0,30.01,SW,232,8.0,-999.0,86,-99.99,,,-99.99,,2013-03-15 01:02:00,
2013-03-14 18:11:00,50.0,46.0,30.01,SW,232,8.0,-999.0,86,-99.99,,,-99.99,,2013-03-15 01:11:00,
2013-03-14 18:21:00,49.0,45.0,30.02,SSW,196,10.0,-999.0,87,-99.99,,,-99.99,,2013-03-15 01:21:00,
2013-03-14 18:32:00,49.0,47.0,30.03,WSW,248,10.0,-999.0,92,-99.99,,,-99.99,,2013-03-15 01:32:00,
2013-03-14 18:42:00,49.0,47.0,30.03,WSW,248,10.0,-999.0,92,-99.99,,,-99.99,,2013-03-15 01:42:00,
2013-03-14 18:52:00,49.0,46.0,30.03,SW,220,13.0,-999.0,90,-99.99,,,-99.99,,2013-03-15 01:52:00,
2013-03-14 19:02:00,48.0,46.0,30.03,SW,236,12.0,-999.0,92,-99.99,,,-99.99,,2013-03-15 02:02:00,
2013-03-14 19:12:00,48.0,46.0,30.03,SW,236,12.0,-999.0,92,-99.99,,,-99.99,,2013-03-15 02:12:00,
2013-03-14 19:22:00,47.0,46.0,30.03,WSW,240,6.0,-999.0,95,-99.99,,,-99.99,,2013-03-15 02:22:00,
2013-03-14 19:32:00,47.0,46.0,30.03,South,190,5.0,-999.0,95,-99.99,,,-99.99,,2013-03-15 02:32:00,
2013-03-14 19:42:00,47.0,46.0,30.03,South,190,5.0,-999.0,95,-99.99,,,-99.99,,2013-03-15 02:42:00,
2013-03-14 19:51:00,47.0,46.0,30.04,WSW,237,4.0,-999.0,95,-99.99,,,-99.99,,2013-03-15 02:51:00,
2013-03-14 20:01:00,47.0,46.0,30.04,SSW,193,3.0,-999.0,95,-99.99,,,-99.99,,2013-03-15 03:01:00,
2013-03-14 20:11:00,47.0,46.0,30.04,SSW,193,3.0,-999.0,95,-99.99,,,-99.99,,2013-03-15 03:11:00,
2013-03-14 20:22:00,47.0,46.0,30.04,WSW,240,6.0,-999.0,96,-99.99,,,-99.99,,2013-03-15 03:22:00,
2013-03-14 20:32:00,47.0,46.0,30.04,WSW,238,5.0,-999.0,96,-99.99,,,-99.99,,2013-03-15 03:32:00,
2013-03-14 20:42:00,47.0,46.0,30.04,WSW,238,5.0,-999.0,96,-99.99,,,-99.99,,2013-03-15 03:42:00,
2013-03-14 20:52:00,47.0,46.0,30.04,South,185,3.0,-999.0,97,-99.99,,,-99.99,,2013-03-15 03:52:00,
2013-03-14 21:03:00,47.0,46.0,30.04,SSW,204,4.0,-999.0,97,-99.99,,,-99.99,,2013-03-15 04:03:00,
2013-03-14 21:12:00,47.0,46.0,30.04,SSW,204,4.0,-999.0,97,-99.99,,,-99.99,,2013-03-15 04:12:00,
2013-03-14 21:22:00,46.0,45.0,30.04,SSW,213,5.0,-999.0,97,-99.99,,,-99.99,,2013-03-15 04:22:00,
2013-03-14 21:32:00,46.0,45.0,30.05,SSW,192,2.0,-999.0,97,-99.99,,,-99.99,,2013-03-15 04:32:00,
2013-03-14 21:42:00,46.0,45.0,30.05,SSW,192,2.0,-999.0,97,-99.99,,,-99.99,,2013-03-15 04:42:00,
2013-03-14 21:52:00,46.0,45.0,30.06,SSW,207,3.0,-999.0,97,-99.99,,,-99.99,,2013-03-15 04:52:00,
2013-03-14 22:02:00,46.0,45.0,30.06,SSW,195,4.0,-999.0,97,-99.99,,,-99.99,,2013-03-15 05:02:00,
2013-03-14 22:12:00,46.0,45.0,30.06,SSW,195,4.0,-999.0,97,-99.99,,,-99.99,,2013-03-15 05:12:00,
2013-03-14 22:22:00,46.0,45.0,30.06,South,185,4.0,-999.0,97,-99.99,,,-99.99,,2013-03-15 05:22:00,
2013-03-14 22:32:00,47.0,46.0,30.06,WSW,242,6.0,-999.0,98,-99.99,,,-99.99,,2013-03-15 05:32:00,
2013-03-14 22:42:00,47.0,46.0,30.06,WSW,242,6.0,-999.0,98,-99.99,,,-99.99,,2013-03-15 05:42:00,
2013-03-14 22:52:00,47.0,46.0,30.07,SSW,213,5.0,-999.0,97,-99.99,,,-99.99,,2013-03-15 05:52:00,
2013-03-14 23:02:00,47.0,46.0,30.08,SW,218,3.0,-999.0,98,-99.99,,,-99.99,,2013-03-15 06:02:00,
2013-03-14 23:12:00,47.0,46.0,30.08,SW,218,3.0,-999.0,98,-99.99,,,-99.99,,2013-03-15 06:12:00,
2013-03-14 23:22:00,47.0,46.0,30.09,South,175,4.0,-999.0,98,-99.99,,,-99.99,,2013-03-15 06:22:00,
2013-03-14 23:32:00,47.0,46.0,30.09,SSW,203,4.0,-999.0,98,-99.99,,,-99.99,,2013-03-15 06:32:00,
2013-03-14 23:42:00,47.0,46.0,30.09,SSW,203,4.0,-999.0,98,-99.99,,,-99.99,,2013-03-15 06:42:00,
2013-03-14 23:52:00,47.0,46.0,30.09,SW,215,3.0,-999.0,98,-99.99,,,-99.99,,2013-03-15 06:52:00,